FENGYUN 1C DEB, 31566

Orbit data source: Space-Track

FENGYUN 1C DEB, 31566 is space debris in SSO originally from a launch on Mon, 10 May 1999 UTC launched from the Taiyaun Space Center, China (TSC). Fengyun 1C debris stems from the Chinese weather satellite Fengyun-1C, which was intentionally destroyed by a Chinese anti-satellite missile in 2007. This event dramatically increased the amount of space debris, with thousands of trackable fragments posing hazards to satellites and human spaceflight. The Fengyun 1C debris cloud has become a focal point in discussions about space sustainability and the need for international regulations to prevent the creation of new debris.

Loading next visibility...
Identifier
31566, 1999-025BZH
Orbit
SSO
Country
Flag of CNCN / PRC
Related business
Manufacturer
Unknown
Mission
Spacecraft
Bus & Motor
Unknown
Mass
Unknown
Launch date (UTC)
1999-05-10 (27 years ago)
Launch vehicle
Unknown
Launch site
Taiyaun Space Center, China (TSC)
Object type
Payload
Rocket body
Debris
Shape & HBR
Unknown shape, 0.1 m
Radar Cross Section
Small (<0.1 m²)

Expand to show TLE details & history
Last TLE update: 2 days ago

TLE from 2 days ago
0 FENGYUN 1C DEB
1 31566U 99025BZH 26252.50483375  .00003024  00000-0  96795-3 0  9996
2 31566  98.9368 327.7993 0022844 273.2718 219.1389 14.40211500  2829
Epoch: 2026-09-09T12:06Z
TLE epoch observation values (Epoch: 2026-09-09T12:06:57.636Z)
Latitude
47.09216°
Longitude
-12.80904°
Altitude
777.719 km
Speed
7.463 km/s
True Right ascension
10h 29m 56s
True Declination
46° 55' 16"
Sunlit
Object was in daylight at epoch
Visualization orbit readout
Latitude
Unknown
Longitude
Unknown
Altitude
Unknown
Speed
Unknown
Apparent Right ascension
Unknown
Apparent Declination
Unknown
Sunlit
N/A
Visualization observer readout
Local Sidereal Time
17:46:00
Azimuth
Unknown
Elevation
Unknown
Doppler factor
Unknown
Orbital elements
Apogee altitude
771.237 km
Perigee altitude
738.648 km
Semi-major axis
7,133.079 km
Eccentricity
0.00228
Inclination
98.9368°
RAAN
327.7993°
Arg. of periapsis
273.2718°
True anomaly
218.97403°
Mean anomaly
219.1389°
Eccentric anomaly
219.05643°
Mean motion
3.6027 °/min
Orbital period
99.93 mins
BSTAR
0.00096795
Loading maneuver chart data...
Computing Atmospheric mass density...

Documentation

Showing up to 5 results
|